Torna al catalogo

LYRA-3

AttivoComunicazioniSSO
NORAD 64577·PAYLOAD·🇦🇺 Australia

Lanciato Jun 23, 2025 da Vandenberg Space Force Base

Loading…

Prossimi Passaggi (prossime 24 ore)

TLE

AggiornatoSource: Space-Track

Epoca: Sep 14, 2026, 14:18 UTC

1 64577U 25135BB  26257.59652443  .00001099  00000-0  17126-3 0  9994
2 64577  97.7765 359.0286 0021809  56.4935 303.8355 14.74692999 66444

Traccia LYRA-3 in tempo reale con AllMySat

Download on the App Store